Location: Beekmeers
(50.8953°N, 3.6968°E)
Time: 02:14:43
(UTC+00:00)

SL-27 R/B - Pass Details

Date: 23 May 2024
Orbit: 329 x 353 km, 74.7° (Epoch: 16 June)

Event Time Altitude Azimuth Distance (km) Brightness Sun altitude
Exits shadow 02:41:28 12° 210° (SSW) 1,159 3.8 -8.3°
Maximum altitude 02:43:57 69° 293° (WNW) 360 1.8 -8.0°
Drops below altitude 10° 02:46:42 10° 19° (NNE) 1,270 5.9 -7.8°
Sets 02:48:40 0° 22° (NNE) 2,112 7.3 -7.5°
